Latest Weather Observations for Victoria River Downs

IDD60801

Issued at 11:31 pm CST Sunday 21 December 2014 (issued every 30 minutes, with the page automatically refreshed every 10 minutes)

About weather observations | Map of weather stations | Latest weather observations for NT | Other Formats
Station Details ID: 014825 Name: VICTORIA RIVER DOWNS Lat: -16.40 Lon: 131.01 Height: 88.5 m
Data from the previous 72 hours. | See also: Recent months at Victoria River Downs
Date/Time
CST
Temp
°C
App
Temp
°C
Dew
Point
Rel
Hum
%
Delta-T
°C
Wind Press
QNH
hPa
Press
MSL
hPa
Rain
since 9 am
mm
Dir
 
Spd
km/h
Gust
km/h
Spd
kts
Gust
kts
21/11:30pm 24.6 27.4 22.3 87 1.5 SE 11 19 6 10 1010.5 - 18.2
21/11:00pm 24.8 28.1 22.5 87 1.6 SE 9 17 5 9 1010.3 - 17.8
21/10:30pm 24.9 28.8 23.0 89 1.3 SSE 7 9 4 5 1010.2 - 17.6
21/10:00pm 24.9 28.1 23.0 89 1.3 SSE 11 17 6 9 1010.4 - 16.4
21/09:30pm 25.1 28.7 23.0 88 1.4 SSE 9 11 5 6 1009.9 - 14.6
21/09:00pm 25.1 29.2 23.0 88 1.4 S 6 9 3 5 1008.7 1008.0 13.0
21/08:30pm 25.3 28.7 23.4 89 1.3 N 11 15 6 8 1009.1 - 11.6
21/08:00pm 25.1 28.4 22.6 86 1.7 W 9 13 5 7 1008.2 - 11.4
21/07:30pm 25.3 26.8 22.0 82 2.2 SW 17 32 9 17 1007.9 - 10.4
21/07:00pm 25.3 29.2 23.0 87 1.6 SSE 7 19 4 10 1007.7 - 5.2
21/06:32pm 26.6 25.8 21.6 74 3.3 SSE 28 46 15 25 1006.5 - 1.4
21/06:31pm 26.6 25.8 21.6 74 3.3 SSE 28 46 15 25 1006.5 - 1.4
21/06:30pm 26.9 25.6 21.4 72 3.7 SSE 30 46 16 25 1006.5 - 1.4
21/06:29pm 27.9 26.9 21.2 67 4.5 SSE 28 46 15 25 1006.3 - 1.4
21/06:28pm 27.9 26.9 21.2 67 4.5 SSE 28 46 15 25 1006.3 - 1.4
21/06:00pm 29.9 31.3 22.6 65 5.0 S 19 32 10 17 1005.4 1004.6 1.4
21/05:30pm 30.7 34.0 21.8 59 6.0 SW 7 11 4 6 1004.4 - 1.4
21/05:00pm 30.2 31.2 20.2 55 6.6 WSW 15 24 8 13 1003.7 - 1.4
21/04:31pm 28.0 26.9 22.5 72 3.7 W 32 50 17 27 1004.1 - 1.4
21/04:30pm 28.0 26.9 22.5 72 3.7 W 32 50 17 27 1004.1 - 1.4
21/04:15pm 27.4 24.9 20.2 65 4.7 SW 33 54 18 29 1003.8 - 1.0
21/04:10pm 28.4 25.7 20.4 62 5.3 SW 35 54 19 29 1003.9 - 0.8
21/04:08pm 29.3 25.5 20.5 59 5.8 SW 41 54 22 29 1003.9 - 0.8
21/04:00pm 31.7 33.5 21.8 55 6.7 SSW 15 50 8 27 1003.8 - 0.8
21/03:55pm 31.4 28.4 17.7 44 8.8 NNE 30 50 16 27 1004.1 - 0.6
21/03:54pm 31.4 28.6 19.4 49 7.9 N 33 50 18 27 1004.1 - 0.2
21/03:30pm 36.9 40.1 19.8 36 11.5 NNE 2 11 1 6 1003.8 - 0.0
21/03:00pm 37.4 38.7 19.3 34 12.1 NNW 11 17 6 9 1004.0 1003.3 0.0
21/02:30pm 36.6 37.2 18.6 34 11.9 N 13 20 7 11 1004.7 - 0.0
21/02:00pm 36.8 38.1 19.3 36 11.7 WNW 11 19 6 10 1005.6 - 0.0
21/01:30pm 36.6 38.0 18.6 34 11.9 N 9 15 5 8 1006.4 - 0.0
21/01:00pm 37.0 38.2 19.9 36 11.5 WNW 13 22 7 12 1007.4 - 0.0
21/12:30pm 35.7 37.0 19.2 38 10.9 W 11 19 6 10 1008.1 - 0.0
21/12:00pm 35.4 36.3 19.3 38 10.7 NW 13 22 7 12 1008.6 1008.1 0.0
21/11:30am 35.7 36.4 19.6 39 10.7 W 15 22 8 12 1008.9 - 0.0
21/11:00am 34.6 36.3 20.2 43 9.6 W 11 17 6 9 1009.2 - 0.0
21/10:30am 34.5 37.1 20.5 44 9.4 WSW 7 13 4 7 1009.5 - 0.0
21/10:00am 33.6 35.9 20.7 46 8.7 NW 9 19 5 10 1009.6 - 0.0
21/09:30am 33.1 36.1 21.3 50 8.0 W 7 15 4 8 1009.5 - 0.0
21/09:00am 31.9 34.8 21.1 52 7.3 NNW 7 13 4 7 1009.5 1008.9 0.0
21/08:30am 31.8 34.5 21.3 53 7.1 W 9 13 5 7 1009.2 - 0.0
21/08:00am 31.1 34.1 21.9 58 6.3 NNW 9 13 5 7 1008.9 - 0.0
21/07:30am 29.9 33.8 23.6 69 4.4 N 9 13 5 7 1008.6 - 0.0
21/07:00am 28.3 33.2 24.3 79 2.8 NNE 6 7 3 4 1008.4 - 0.0
21/06:30am 27.5 31.6 23.9 81 2.5 NE 9 13 5 7 1007.9 - 0.0
21/06:00am 27.5 31.6 23.9 81 2.5 NE 9 13 5 7 1007.2 1006.6 0.0
21/05:30am 27.2 33.1 24.1 83 2.1 CALM 0 0 0 0 1006.6 - 0.0
21/05:00am 27.3 32.7 23.3 79 2.7 CALM 0 0 0 0 1006.4 - 0.0
21/04:30am 27.5 33.1 23.5 79 2.7 CALM 0 0 0 0 1006.4 - 0.0
21/04:00am 27.5 33.1 23.5 79 2.7 CALM 0 0 0 0 1006.4 - 0.0
21/03:30am 27.8 33.0 23.6 78 2.9 W 2 6 1 3 1006.4 - 0.0
21/03:00am 28.1 33.4 23.0 74 3.5 CALM 0 0 0 0 1006.4 1005.8 0.0
21/02:30am 28.3 32.7 22.8 72 3.8 SSW 4 6 2 3 1006.5 - 0.0
21/02:00am 28.3 32.5 23.4 75 3.4 W 7 9 4 5 1006.8 - 0.0
21/01:30am 28.5 32.2 22.3 69 4.2 SSE 6 7 3 4 1007.0 - 0.0
21/01:00am 28.8 33.4 21.8 66 4.7 CALM 0 0 0 0 1007.1 - 0.0
21/12:30am 29.3 32.6 21.8 64 5.1 NNE 7 9 4 5 1007.6 - 0.0
21/12:00am 29.7 32.7 20.8 58 5.9 N 6 7 3 4 1008.0 1007.5 0.0
 
Date/Time
CST
Temp
°C
App
Temp
°C
Dew
Point
Rel
Hum
%
Delta-T
°C
Wind Press
QNH
hPa
Press
MSL
hPa
Rain
since 9 am
mm
Dir
 
Spd
km/h
Gust
km/h
Spd
kts
Gust
kts
20/11:30pm 29.6 32.6 21.3 61 5.6 NNW 7 11 4 6 1008.1 - 0.0
20/11:00pm 29.7 32.2 21.1 60 5.8 NW 9 11 5 6 1008.1 - 0.0
20/10:30pm 29.7 32.6 21.1 60 5.8 N 7 9 4 5 1008.1 - 0.0
20/10:00pm 29.8 33.0 20.6 57 6.1 N 4 7 2 4 1007.8 - 0.0
20/09:30pm 30.1 33.5 20.1 55 6.6 NNE 2 7 1 4 1007.6 - 0.0
20/09:00pm 30.1 33.9 20.1 55 6.6 CALM 0 0 0 0 1007.2 1006.6 0.0
20/08:30pm 30.4 32.6 19.7 52 7.0 W 7 7 4 4 1007.1 - 0.0
20/08:00pm 30.7 31.9 19.1 50 7.6 NW 11 15 6 8 1006.8 - 0.0
20/07:30pm 30.7 32.0 18.4 47 8.0 SE 9 13 5 7 1006.1 - 0.0
20/07:00pm 30.3 30.7 19.0 50 7.4 ESE 15 26 8 14 1005.9 - 0.0
20/06:30pm 30.4 28.7 18.2 48 7.9 ESE 24 43 13 23 1006.2 - 0.0
20/06:12pm 31.8 30.2 18.4 45 8.7 E 24 52 13 28 1005.5 - 0.0
20/06:07pm 32.7 29.7 16.9 38 10.1 E 28 52 15 28 1005.5 - 0.0
20/06:00pm 36.8 38.1 18.4 34 12.1 ENE 9 15 5 8 1005.0 1004.2 0.0
20/05:30pm 36.9 39.4 20.2 37 11.3 SE 7 13 4 7 1004.7 - 0.0
20/05:00pm 36.7 38.3 19.2 36 11.6 NNE 9 17 5 9 1004.7 - 0.0
20/04:30pm 36.5 38.2 19.4 36 11.4 NE 9 13 5 7 1004.8 - 0.0
20/04:00pm 36.4 37.9 18.9 35 11.6 NNW 9 13 5 7 1005.1 - 0.0
20/03:30pm 36.1 37.9 19.5 37 11.1 W 9 13 5 7 1005.6 - 0.0
20/03:00pm 35.6 37.8 19.5 38 10.7 NW 7 13 4 7 1005.8 1005.3 0.0
20/02:30pm 35.9 37.8 20.6 41 10.3 W 11 15 6 8 1006.7 - 0.0
20/02:00pm 35.0 37.7 20.2 42 9.9 W 6 13 3 7 1007.4 - 0.0
20/01:30pm 34.3 36.8 19.9 42 9.6 W 6 11 3 6 1008.1 - 0.0
20/01:00pm 33.9 36.1 20.3 45 9.1 SSE 9 13 5 7 1008.7 - 0.0
20/12:30pm 33.1 35.9 21.6 51 7.8 SW 9 17 5 9 1009.4 - 0.0
20/12:00pm 32.1 35.6 21.9 54 6.9 ESE 6 17 3 9 1010.0 1009.4 0.0
20/11:30am 31.5 34.6 22.8 60 6.0 E 11 15 6 8 1010.8 - 0.0
20/11:00am 30.9 33.8 21.1 56 6.6 ESE 7 11 4 6 1011.4 - 0.0
20/10:30am 30.1 33.1 22.0 62 5.5 E 9 13 5 7 1012.0 - 0.0
20/10:00am 29.2 33.1 22.9 69 4.3 SE 7 11 4 6 1012.1 - 0.0
20/09:30am 29.0 33.4 23.4 72 3.9 SE 6 9 3 5 1012.0 - 0.0
20/09:00am 29.0 33.3 22.7 69 4.3 NW 4 9 2 5 1011.7 1011.0 13.8
20/08:30am 28.1 32.5 22.1 70 4.1 ESE 2 7 1 4 1011.4 - 13.8
20/08:00am 27.0 30.6 22.4 76 3.1 ENE 7 11 4 6 1010.9 - 13.8
20/07:30am 26.1 30.4 22.6 81 2.4 NW 4 11 2 6 1010.9 - 13.6
20/07:00am 25.4 30.2 22.9 86 1.7 W 2 7 1 4 1010.0 - 13.6
20/06:30am 24.9 28.8 22.6 87 1.6 N 6 7 3 4 1009.8 - 13.6
20/06:00am 25.0 28.4 22.7 87 1.6 NNE 9 13 5 7 1009.7 1009.1 13.6
20/05:30am 24.9 27.9 22.6 87 1.6 NNE 11 15 6 8 1009.2 - 13.6
20/05:00am 24.9 27.5 22.6 87 1.6 NE 13 19 7 10 1008.6 - 13.6
20/04:30am 25.1 27.7 22.6 86 1.7 NE 13 20 7 11 1008.5 - 13.6
20/04:00am 25.1 28.2 22.8 87 1.6 ENE 11 15 6 8 1008.0 - 13.6
20/03:30am 25.1 28.8 22.6 86 1.7 NE 7 9 4 5 1007.8 - 13.6
20/03:00am 25.0 28.3 22.5 86 1.7 NNW 9 11 5 6 1007.5 1006.8 13.6
20/02:30am 25.2 29.7 22.3 84 1.9 SE 2 9 1 5 1007.9 - 13.6
20/02:00am 25.2 28.4 22.3 84 1.9 SSW 9 11 5 6 1008.5 - 13.6
20/01:30am 25.0 27.8 22.3 85 1.8 SW 11 17 6 9 1009.4 - 13.6
20/01:00am 25.4 28.1 22.1 82 2.2 S 11 17 6 9 1010.1 - 13.6
20/12:30am 25.7 29.2 22.8 84 2.0 SSW 9 15 5 8 1011.3 - 13.6
20/12:00am 25.8 29.2 22.7 83 2.1 S 9 13 5 7 1012.7 1012.0 13.4
 
Date/Time
CST
Temp
°C
App
Temp
°C
Dew
Point
Rel
Hum
%
Delta-T
°C
Wind Press
QNH
hPa
Press
MSL
hPa
Rain
since 9 am
mm
Dir
 
Spd
km/h
Gust
km/h
Spd
kts
Gust
kts
19/11:30pm 26.0 29.5 22.9 83 2.1 W 9 13 5 7 1011.8 - 13.4
19/11:00pm 25.9 28.3 23.0 84 2.0 W 15 19 8 10 1011.8 - 13.4
19/10:30pm 25.5 29.0 22.8 85 1.8 SSW 9 17 5 9 1012.3 - 13.4
19/10:00pm 25.3 27.8 22.4 84 2.0 S 13 22 7 12 1012.1 - 13.2
19/09:30pm 25.0 27.1 22.5 86 1.7 NW 15 20 8 11 1011.4 - 13.0
19/09:00pm 25.1 25.8 22.2 84 1.9 NNW 22 33 12 18 1011.3 1010.7 12.6
19/08:30pm 25.4 26.2 23.1 87 1.6 NNW 24 37 13 20 1011.6 - 12.0
19/08:00pm 25.3 27.8 23.2 88 1.4 NNW 15 22 8 12 1010.5 - 11.6
19/07:30pm 25.1 28.1 23.3 90 1.2 NNE 13 19 7 10 1010.8 - 11.4
19/07:00pm 24.7 25.7 22.9 90 1.2 E 22 33 12 18 1011.0 - 8.6
19/06:30pm 26.5 24.9 21.9 76 3.1 ESE 33 61 18 33 1009.4 - 1.2
19/06:24pm 29.0 28.1 21.5 64 5.0 ESE 28 59 15 32 1009.0 - 1.2
19/06:23pm 29.0 28.1 21.5 64 5.0 ESE 28 59 15 32 1009.0 - 1.2
19/06:18pm 29.8 34.4 24.2 72 3.9 WSW 7 13 4 7 1008.3 - 1.2
19/06:17pm 29.8 34.4 24.2 72 3.9 WSW 7 13 4 7 1008.3 - 1.2
19/06:00pm 29.9 33.5 23.1 67 4.7 N 9 11 5 6 1005.6 1004.8 1.2
19/05:30pm 29.1 31.2 23.1 70 4.1 NW 17 28 9 15 1005.8 - 1.2
19/05:15pm 29.4 32.0 21.9 64 5.1 N 11 17 6 9 1006.1 - 0.8
19/05:00pm 31.5 31.9 21.7 56 6.6 NW 22 28 12 15 1005.8 - 0.0
19/04:30pm 34.2 34.2 19.8 42 9.6 NW 19 26 10 14 1005.5 - 0.0
19/04:00pm 36.9 38.0 18.9 34 11.9 SW 11 26 6 14 1005.1 - 0.0
19/03:30pm 38.6 39.7 20.4 34 12.3 S 15 26 8 14 1005.0 - 0.0
19/03:00pm 38.7 39.8 18.0 29 13.7 SW 9 15 5 8 1005.5 1004.8 0.0
19/02:30pm 39.4 41.6 19.6 31 13.3 WNW 7 13 4 7 1006.0 - 0.0
19/02:00pm 38.1 39.3 19.0 32 12.7 SW 11 17 6 9 1006.9 - 0.0
19/01:30pm 38.4 40.1 19.3 33 12.8 NW 9 13 5 7 1007.8 - 0.0
19/01:00pm 37.9 39.0 18.8 32 12.7 ENE 11 17 6 9 1008.4 - 0.0
19/12:30pm 37.1 38.5 18.6 33 12.2 NNE 9 13 5 7 1009.1 - 0.0
19/12:00pm 36.6 38.4 19.5 36 11.4 E 9 15 5 8 1009.6 1009.1 0.0
19/11:30am 36.2 38.8 20.4 39 10.7 ESE 7 15 4 8 1010.1 - 0.0
19/11:00am 35.5 37.4 20.6 41 10.1 SE 11 17 6 9 1010.5 - 0.0
19/10:30am 34.6 37.3 20.6 44 9.4 SSE 7 15 4 8 1010.7 - 0.0
19/10:00am 34.0 36.3 20.7 45 9.0 S 9 13 5 7 1010.9 - 0.0
19/09:30am 33.5 36.2 21.3 48 8.3 S 9 15 5 8 1011.0 - 0.0
19/09:00am 32.1 34.6 21.0 52 7.5 S 9 13 5 7 1011.0 1010.4 0.0
19/08:30am 31.1 33.8 21.3 56 6.6 SW 9 15 5 8 1010.6 - 0.0
19/08:00am 30.3 32.9 21.9 60 5.7 WSW 11 15 6 8 1010.5 - 0.0
19/07:30am 28.7 31.7 21.2 64 5.0 W 7 9 4 5 1010.1 - 0.0
19/07:00am 27.4 31.8 21.4 70 4.0 CALM 0 0 0 0 1010.1 - 0.0
19/06:30am 26.8 31.2 21.3 72 3.7 CALM 0 0 0 0 1009.9 - 0.0
19/06:00am 26.8 30.7 21.1 71 3.8 WNW 2 6 1 3 1009.6 1008.9 0.0
19/05:30am 27.3 30.3 21.3 69 4.0 W 7 7 4 4 1009.3 - 0.0
19/05:00am 27.5 - 21.3 69 4.1 - - - - - 1008.9 - 0.0
19/04:30am 27.7 - 21.0 67 4.5 - - - - - 1008.8 - 0.0
19/04:00am 27.6 30.3 21.4 69 4.1 SW 9 13 5 7 1008.7 - 0.0
19/03:30am 27.8 30.3 21.1 67 4.5 SSW 9 13 5 7 1008.6 - 0.0
19/03:00am 27.8 31.6 20.9 66 4.6 SSW 2 9 1 5 1008.5 1007.9 0.0
19/02:30am 28.1 31.5 20.9 65 4.8 SW 4 7 2 4 1008.1 - 0.0
19/02:00am 28.2 32.2 20.5 63 5.1 CALM 0 0 0 0 1007.9 - 0.0
19/01:30am 28.6 30.9 20.6 62 5.3 WNW 9 13 5 7 1007.8 - 0.0
19/01:00am 28.5 30.9 20.8 63 5.1 N 9 11 5 6 1008.3 - 0.0
19/12:30am 28.7 30.9 20.4 60 5.5 NNW 9 11 5 6 1008.4 - 0.0
19/12:00am 28.6 30.5 19.8 59 5.8 NNE 9 11 5 6 1008.1 1007.4 0.0

Other Formats:

Comma delimited format used in spreadsheet applications
http://www.bom.gov.au/fwo/IDD60801/IDD60801.94232.axf

JavaScript Object Notation format (JSON) in row-major order
http://www.bom.gov.au/fwo/IDD60801/IDD60801.94232.json